Los Alamos, NM

3:41 PM MST on December 03, 2016 (GMT -0700)
Los Alamos

Weather History for KLAM - August, 2014

Change the Weather History Date:

Saturday, August 23, 2014

  Actual Average Record
Temperature  
Mean Temperature 62 °F -  
Max Temperature 74 °F 75 °F 89 °F (2007)
Min Temperature 51 °F 52 °F 44 °F (1990)
Degree Days  
Heating Degree Days 2    
Growing Degree Days 12 (Base 50)    
Moisture  
Dew Point 45 °F    
Average Humidity 60    
Maximum Humidity 98    
Minimum Humidity 26    
Precipitation  
Precipitation 0.00 in - - ()
Sea Level Pressure  
Sea Level Pressure 30.22 in    
Wind  
Wind Speed 4 mph (SW)    
Max Wind Speed 14 mph    
Max Gust Speed 22 mph    
Visibility 10 miles    
Events      
Averages and records for this station are not official NWS values.
T = Trace of Precipitation, MM = Missing Value Source: NWS Daily Summary

Daily Weather History Graph

Daily Weather History Graph

Search for Another Location

Airport or City:

Trip Planner

Search our weather history database for the weather conditions in past years. The results will help you decide how hot, cold, wet, or windy it might be!

Date:

Astronomy

Aug. 23, 2014 Rise Set
Actual Time 6:30 AM MDT 7:44 PM MDT
Civil Twilight 6:03 AM MDT 8:11 PM MDT
Nautical Twilight 5:31 AM MDT 8:42 PM MDT
Astronomical Twilight 4:58 AM MDT 9:15 PM MDT
Moon 4:49 AM MDT (8/23) 6:30 PM MDT (8/23)
Length of Visible Light 14h 07m
Length of Day
13h 14m
Waning Crescent, 3% of the Moon is Illuminated
Aug 23
Waning Crescent
Aug 25
New
Sep 2
First Quarter
Sep 8
Full
Sep 15
Last Quarter

Hourly Weather History & Observations

Time (MDT) Temp. Dew Point Humidity Pressure Visibility Wind Dir Wind Speed Gust Speed Precip Events Conditions
12:15 AM 54.0 °F 48.6 °F 82% 30.25 in 10.0 mi NW 3.5 mph - N/A   Clear
12:35 AM 55.0 °F 49.3 °F 81% 30.25 in 10.0 mi Calm Calm - N/A   Clear
12:55 AM 54.9 °F 49.1 °F 81% 30.25 in 10.0 mi Calm Calm - N/A   Scattered Clouds
1:15 AM 55.0 °F 48.9 °F 80% 30.25 in 10.0 mi Calm Calm - N/A   Scattered Clouds
1:55 AM 54.5 °F 48.4 °F 80% 30.25 in 10.0 mi Calm Calm - N/A   Mostly Cloudy
2:15 AM 54.5 °F 48.7 °F 81% 30.25 in 10.0 mi Calm Calm - N/A   Mostly Cloudy
2:35 AM 54.1 °F 48.6 °F 81% 30.25 in 10.0 mi Calm Calm - N/A   Scattered Clouds
2:55 AM 53.6 °F 47.8 °F 81% 30.25 in 10.0 mi Calm Calm - N/A   Clear
3:15 AM 54.1 °F 49.1 °F 83% 30.25 in 10.0 mi Calm Calm - N/A   Clear
3:35 AM 53.2 °F 50.0 °F 89% 30.25 in 10.0 mi Calm Calm - N/A   Clear
3:55 AM 53.8 °F 49.5 °F 85% 30.25 in 10.0 mi Calm Calm - N/A   Clear
4:15 AM 53.2 °F 49.8 °F 88% 30.24 in 10.0 mi Calm Calm - N/A   Clear
4:35 AM 52.9 °F 51.3 °F 94% 30.24 in 10.0 mi Calm Calm - N/A   Clear
4:55 AM 52.9 °F 51.8 °F 96% 30.24 in 10.0 mi Calm Calm - N/A   Clear
5:15 AM 52.0 °F 51.3 °F 97% 30.24 in 10.0 mi Calm Calm - N/A   Clear
5:35 AM 52.3 °F 51.8 °F 98% 30.24 in 10.0 mi Calm Calm - N/A   Clear
5:55 AM 52.5 °F 51.6 °F 97% 30.24 in 10.0 mi Calm Calm - N/A   Scattered Clouds
6:15 AM 51.8 °F 51.1 °F 97% 30.24 in 10.0 mi Calm Calm - N/A   Mostly Cloudy
6:35 AM 51.8 °F 51.1 °F 97% 30.25 in 10.0 mi Calm Calm - N/A   Scattered Clouds
6:55 AM 51.8 °F 50.4 °F 95% 30.25 in 10.0 mi Calm Calm - N/A   Mostly Cloudy
7:15 AM 52.2 °F 51.6 °F 98% 30.25 in 10.0 mi Calm Calm - N/A   Overcast
7:35 AM 52.0 °F 51.3 °F 97% 30.26 in 10.0 mi Calm Calm - N/A   Overcast
7:55 AM 52.2 °F 51.1 °F 96% 30.25 in 10.0 mi Calm Calm - N/A   Scattered Clouds
8:15 AM 54.5 °F 50.4 °F 86% 30.25 in 10.0 mi East 3.5 mph - N/A   Scattered Clouds
8:35 AM 54.0 °F 52.0 °F 93% 30.25 in 10.0 mi Calm Calm - N/A   Scattered Clouds
8:55 AM 55.6 °F 51.1 °F 85% 30.25 in 10.0 mi Calm Calm - N/A   Clear
9:15 AM 56.8 °F 51.3 °F 82% 30.25 in 10.0 mi Calm Calm - N/A   Clear
9:35 AM 59.5 °F 53.8 °F 81% 30.26 in 10.0 mi East 5.8 mph - N/A   Clear
9:55 AM 60.1 °F 54.0 °F 80% 30.26 in 10.0 mi East 8.1 mph - N/A   Scattered Clouds
10:15 AM 61.3 °F 52.5 °F 73% 30.25 in 10.0 mi SE 6.9 mph - N/A   Scattered Clouds
10:35 AM 62.1 °F 52.7 °F 71% 30.25 in 10.0 mi ESE 8.1 mph - N/A   Mostly Cloudy
10:55 AM 62.8 °F 50.9 °F 65% 30.25 in 10.0 mi ESE 9.2 mph - N/A   Mostly Cloudy
11:15 AM 62.4 °F 52.5 °F 70% 30.25 in 10.0 mi ESE 5.8 mph - N/A   Mostly Cloudy
11:35 AM 63.9 °F 52.0 °F 65% 30.25 in 10.0 mi SSE 5.8 mph - N/A   Mostly Cloudy
11:55 AM 65.3 °F 52.3 °F 63% 30.24 in 10.0 mi South 8.1 mph - N/A   Scattered Clouds
12:15 PM 66.6 °F 51.1 °F 57% 30.23 in 10.0 mi SE 5.8 mph - N/A   Scattered Clouds
12:35 PM 66.7 °F 50.0 °F 55% 30.22 in 10.0 mi ESE 5.8 mph - N/A   Mostly Cloudy
12:55 PM 68.2 °F 47.7 °F 48% 30.21 in 10.0 mi SSE 6.9 mph - N/A   Overcast
1:15 PM 70.5 °F 43.5 °F 38% 30.21 in 10.0 mi South 13.8 mph 18.4 mph N/A   Mostly Cloudy
1:35 PM 72.0 °F 38.8 °F 30% 30.21 in 10.0 mi South 12.7 mph 21.9 mph N/A   Mostly Cloudy
1:55 PM 72.1 °F 38.3 °F 29% 30.20 in 10.0 mi SW 8.1 mph 17.3 mph N/A   Scattered Clouds
2:15 PM 73.6 °F 39.0 °F 29% 30.20 in 10.0 mi West 9.2 mph 17.3 mph N/A   Scattered Clouds
2:35 PM 73.0 °F 38.5 °F 29% 30.19 in 10.0 mi West 6.9 mph 10.4 mph N/A   Scattered Clouds
2:55 PM 72.9 °F 38.8 °F 29% 30.18 in 10.0 mi SSW 12.7 mph 17.3 mph N/A   Clear
3:15 PM 73.2 °F 40.1 °F 30% 30.18 in 10.0 mi SW 10.4 mph 17.3 mph N/A   Clear
3:35 PM 72.9 °F 39.7 °F 30% 30.18 in 10.0 mi SW 8.1 mph - N/A   Clear
3:55 PM 74.5 °F 37.8 °F 26% 30.18 in 10.0 mi West 12.7 mph 19.6 mph N/A   Clear
4:15 PM 74.1 °F 37.4 °F 26% 30.18 in 10.0 mi West 12.7 mph 21.9 mph N/A   Clear
4:35 PM 73.9 °F 39.0 °F 28% 30.18 in 10.0 mi WSW 12.7 mph - N/A   Clear
4:55 PM 74.3 °F 39.4 °F 28% 30.18 in 10.0 mi WSW 5.8 mph - N/A   Clear
5:15 PM 73.4 °F 38.7 °F 28% 30.17 in 10.0 mi West 9.2 mph - N/A   Clear
5:35 PM 74.1 °F 38.7 °F 28% 30.18 in 10.0 mi WSW 10.4 mph 16.1 mph N/A   Clear
6:15 PM 73.4 °F 38.5 °F 28% 30.17 in 10.0 mi SW 8.1 mph - N/A   Clear
6:35 PM 72.9 °F 38.3 °F 29% 30.18 in 10.0 mi SW 10.4 mph 17.3 mph N/A   Scattered Clouds
6:55 PM 72.0 °F 38.5 °F 30% 30.17 in 10.0 mi WSW 9.2 mph - N/A   Clear
7:15 PM 71.1 °F 38.8 °F 31% 30.18 in 10.0 mi SW 8.1 mph - N/A   Clear
7:35 PM 69.8 °F 39.4 °F 33% 30.18 in 10.0 mi SSW 6.9 mph - N/A   Clear
7:55 PM 68.9 °F 39.6 °F 34% 30.19 in 10.0 mi SW 6.9 mph - N/A   Clear
8:15 PM 68.4 °F 39.2 °F 34% 30.19 in 10.0 mi WSW 6.9 mph - N/A   Clear
8:35 PM 68.0 °F 38.5 °F 34% 30.19 in 10.0 mi SW 8.1 mph - N/A   Clear
8:55 PM 67.5 °F 38.3 °F 34% 30.20 in 10.0 mi SW 5.8 mph - N/A   Clear
9:15 PM 66.6 °F 39.4 °F 37% 30.21 in 10.0 mi West 6.9 mph - N/A   Clear
9:35 PM 66.4 °F 39.4 °F 37% 30.21 in 10.0 mi West 4.6 mph - N/A   Clear
9:55 PM 66.4 °F 38.8 °F 36% 30.21 in 10.0 mi WSW 5.8 mph - N/A   Clear
10:15 PM 66.2 °F 39.9 °F 38% 30.22 in 10.0 mi West 8.1 mph - N/A   Scattered Clouds
10:35 PM 65.3 °F 40.5 °F 40% 30.21 in 10.0 mi West 6.9 mph - N/A   Clear
10:55 PM 64.6 °F 40.3 °F 41% 30.21 in 10.0 mi West 8.1 mph - N/A   Scattered Clouds
11:15 PM 63.5 °F 40.6 °F 43% 30.21 in 10.0 mi WSW 6.9 mph - N/A   Scattered Clouds
11:35 PM 64.0 °F 40.5 °F 42% 30.21 in 10.0 mi West 8.1 mph - N/A   Scattered Clouds
11:55 PM 64.0 °F 39.9 °F 41% 30.21 in 10.0 mi West 8.1 mph - N/A   Clear